Regional Weather Roundup
Issued by NWS

Home | Current Version | Previous Version | Graphics & Text | Print | Product List | Glossary Off
Versions: 1 2 3 4 5 6 7 8 9 10 11 12 13 14 15 16 17 18 19 20 21 22 23 24 25 26 27 28 29 30 31 32 33 34 35 36 37 38 39 40 41 42 43 44 45 46 47 48 49 50

000
ASUS43 KFSD 241110
RWRSD

WEATHER ROUNDUP FOR SOUTH DAKOTA
NATIONAL WEATHER SERVICE SIOUX FALLS SD
600 AM CDT WED AUG 24 2016

NOTE: "FAIR" INDICATES FEW OR NO CLOUDS BELOW 12,000 FEET WITH NO
SIGNIFICANT WEATHER AND/OR OBSTRUCTIONS TO VISIBILITY.


SDZ001>005-009-010-012>017-241200-
NORTHWEST AND NORTH CENTRAL SOUTH DAKOTA

CITY           SKY/WX    TMP DP  RH WIND       PRES   REMARKS
BUFFALO          N/A     53  46  77 W14       30.05R
FAITH            N/A     57  45  64 NW13      30.08R
MOBRIDGE       PTCLDY    56  44  64 W5        30.00R
$$

SDZ012>016-024>037-041>051-057-063-072>074-241200-
SOUTHWEST AND SOUTH CENTRAL SOUTH DAKOTA

CITY           SKY/WX    TMP DP  RH WIND       PRES   REMARKS
RAPID CTY ARPT CLOUDY    61  41  47 N18       30.12S
PIERRE         PTCLDY    56  46  69 NW14      30.02R
CUSTER         CLOUDY    53  28  38 NW6       30.21R
ELLSWORTH AFB  CLOUDY    62  42  47 N18G26    30.11S
PHILIP         PTCLDY    57  42  57 NW10      30.07R
PINE RIDGE     CLOUDY    40  39  97 CALM      30.12S
WINNER         FAIR      58  42  55 SW6       30.05R
$$

SDZ004>011-016>023-039-040-241200-
NORTHEAST SOUTH DAKOTA

CITY           SKY/WX    TMP DP  RH WIND       PRES   REMARKS
ABERDEEN       CLEAR     56  47  71 W5        29.96R
WATERTOWN      CLEAR     59  53  80 NW3       29.94R
BROOKINGS      CLEAR     57  54  89 NW3       29.94R
SISSETON         N/A     56  49  77 N7        29.89R
$$

SDZ017-020-022-023-036>040-048>070-241200-
SOUTHEAST SOUTH DAKOTA

CITY           SKY/WX    TMP DP  RH WIND       PRES   REMARKS
SIOUX FALLS    CLEAR     64  55  72 NW13      29.92R
HURON          CLEAR     51  47  86 NW6       29.96R
CHAMBERLAIN    CLEAR     54  49  81 W5        30.02R
MITCHELL       CLEAR     56  48  74 W6        29.98R
YANKTON        CLEAR     59  48  67 NW10      29.95R
$$

ABBREVIATIONS USED IN REMARKS
   TC - TEMPERATURE IN CELSIUS
  WCI - WIND CHILL INDEX
   HX - HEAT INDEX
  VSB - VISIBILITY





USA.gov is the U.S. government's official web portal to all federal, state and local government web resources and services.